Location: Mercogliano
(40.9167°N, 14.7333°E)
Time: 13:55:23
(UTC+00:00)

DMSP B5D2-2 - Pass Details

Date: 18 September 2020
Orbit: 790 x 806 km, 98.3° (Epoch: 28 October)

Event Time Altitude Azimuth Distance (km) Brightness Sun altitude
Rises 18:40:43 0° 15° (NNE) 3,330 7.4 -18.6°
Reaches altitude 10° 18:43:05 10° 18° (NNE) 2,395 6.6 -19.1°
Maximum altitude 18:48:22 70° 102° (ESE) 858 4.0 -20.0°
Drops below altitude 10° 18:53:36 10° 186° (S) 2,375 6.4 -20.9°
Sets 18:55:56 0° 188° (S) 3,300 7.1 -21.3°
